Location: Ku?niki
(51.4449°N, 17.8974°E)
Time: 01:39:51
(UTC+00:00)

First-Move - Pass Details

Date: 02 July 2022
Orbit: 572 x 658 km, 97.6° (Epoch: 07 August)

Event Time Altitude Azimuth Distance (km) Brightness Sun altitude
Rises 01:22:19 0° 32° (NNE) 2,949 ? -8.6°
Reaches altitude 10° 01:26:25 10° 70° (ENE) 2,052 ? -8.2°
Maximum altitude 01:27:33 11° 85° (E) 1,998 ? -8.1°
Drops below altitude 10° 01:28:43 10° 100° (E) 2,057 ? -8.0°
Sets 01:32:49 0° 137° (SE) 2,973 ? -7.6°
